#timestamp,LO_Frequency,Hit,StdDev 
1527343215.8,286046998.1,N
1527343235.6,286047001.1,N
1527343255.4,286047000.7,N
1527343275.3,286047000.9,N
1527343295.1,286047001.0,N
1527343315.9,286046999.7,N
1527343335.7,286047002.5,N
1527343355.5,286047001.6,N
1527343375.4,286047002.8,N
1527343395.2,286046999.7,N
1527343415.0,286047000.4,N
1527343416.0,286047000.4,N
1527343435.8,286047002.8,N
1527343455.6,286047002.7,N
1527343475.5,286047002.8,N
1527343495.3,286047000.5,N
1527343515.1,286047000.5,N
1527343535.9,286047000.5,N
1527343555.7,286047000.4,N
1527343575.6,286047001.2,N
1527343595.4,286047000.4,N
1527343615.2,286047000.6,N
1527343635.1,286047000.6,N
1527343636.0,286047000.6,N
1527343655.8,286047001.1,N
1527343675.6,286046998.6,N
1527343695.5,286047000.9,N
1527343715.3,286046998.8,N
1527343735.2,286046998.5,N
1527343755.9,286046999.9,N
1527343775.7,286047002.4,N
1527343795.6,286046999.7,N
1527343815.4,286047000.0,N
1527343835.2,286047002.4,N
1527343855.1,286047001.7,N
1527343856.0,286047001.7,N
1527343875.8,286047001.8,N
1527343895.7,286047001.7,N
1527343915.5,286047002.1,N
1527343935.3,286047002.7,N
1527343955.2,286047001.8,N
1527343975.0,286047000.2,N
1527343975.9,286047000.2,N
1527343995.7,286046998.2,N
1527344015.6,286047002.2,N
1527344035.4,286047002.3,N
1527344055.3,286047004.3,Y
1527344075.1,286047004.4,P
1527344076.0,286047004.4,N
1527344095.8,286047003.9,N
1527344115.7,286047002.1,N
1527344135.5,286047001.8,N
1527344155.3,286047000.1,N
1527344175.2,286047000.4,N
1527344195.0,286047000.9,N
1527344195.9,286047000.9,N
1527344215.8,286047000.3,N
1527344235.6,286046999.8,N
1527344255.4,286046999.7,N
1527344275.3,286046998.6,N
1527344295.1,286046998.1,N
1527344315.9,286046998.1,N
1527344335.7,286047000.1,N
1527344355.5,286047002.6,N
1527344375.4,286047002.8,N
1527344395.2,286047002.5,N
1527344415.1,286047002.7,N
1527344416.0,286047002.7,N
1527344435.8,286047004.1,N
1527344455.6,286047005.1,N
1527344475.5,286047003.3,N
1527344495.3,286047003.9,N
1527344515.1,286047003.3,N
1527344535.9,286047005.8,N
1527344555.7,286047005.6,N
1527344575.6,286047003.6,N
1527344595.4,286047006.0,N
1527344615.2,286047005.8,N
1527344635.1,286047006.0,N
1527344636.0,286047006.0,N
1527344655.8,286047006.0,N
1527344675.6,286047005.8,N
1527344695.5,286047003.6,N
1527344715.3,286047003.5,N
1527344735.2,286047003.6,N
1527344755.9,286047003.3,N
1527344775.7,286047003.5,N
1527344795.6,286047003.1,N
1527344815.4,286047003.1,N
1527344835.2,286047002.1,N
1527344855.1,286047002.4,N
1527344856.0,286047002.4,N
1527344875.8,286047001.5,N
1527344895.7,286047004.2,Y
1527344915.5,286046999.1,P
1527344935.3,286046999.2,N
1527344955.2,286046998.8,N
1527344975.0,286046996.6,N
1527344975.9,286046996.6,N
1527344995.8,286046999.1,N
1527345015.6,286046998.1,N
1527345035.4,286046999.1,N
1527345055.3,286046997.1,N
1527345075.1,286046997.9,N
1527345095.8,286046997.4,N
1527345115.7,286046997.1,N
1527345135.5,286046997.6,N
1527345155.4,286046994.9,N
1527345175.2,286046995.0,N
1527345195.0,286046995.4,N
1527345195.9,286046995.4,N
1527345215.8,286046995.6,N
1527345235.6,286046995.6,N
1527345255.5,286046996.1,N
1527345275.3,286046995.0,N
1527345295.1,286046995.6,N
1527345315.9,286046995.8,N
1527345335.7,286046993.4,Y
1527345355.5,286046997.7,P
1527345375.4,286046994.9,P
1527345395.2,286046995.5,P
1527345415.1,286046995.0,Y
1527345416.0,286046995.0,P
1527345435.8,286047000.0,N
1527345455.6,286047000.7,N
1527345475.5,286047002.7,N
1527345495.3,286047000.2,N
1527345515.2,286047000.0,N
1527345535.9,286047000.0,N
1527345555.7,286047000.8,N
1527345575.6,286046999.8,N
1527345595.4,286047000.4,N
1527345615.2,286047000.0,N
1527345635.1,286047000.2,N
1527345636.0,286047000.2,N
1527345655.8,286047001.1,N
1527345675.7,286047001.1,N
1527345695.5,286046998.1,N
1527345715.3,286047001.2,N
1527345735.2,286046998.7,N
1527345755.0,286047001.1,N
1527345755.9,286047001.1,N
1527345775.7,286046998.8,N
1527345795.6,286046996.5,N
1527345815.4,286046999.6,N
1527345835.3,286046996.9,N
1527345855.1,286046996.9,N
1527345856.0,286046996.9,N
1527345875.8,286046996.8,N
1527345895.7,286046997.0,N
1527345915.5,286046997.1,N
1527345935.4,286046999.1,N
1527345955.2,286046996.6,N
1527345975.0,286046998.8,N
1527345975.9,286046998.8,N
1527345995.8,286046999.3,N
1527346015.6,286046998.8,N
1527346035.4,286047000.8,N
1527346055.3,286047001.0,N
1527346075.1,286047000.6,N
1527346095.9,286046998.1,N
1527346115.7,286047000.7,N
1527346135.5,286047000.9,N
1527346155.4,286047000.8,N
1527346175.2,286046998.5,N
1527346195.0,286046998.2,N
1527346195.9,286046998.2,N
1527346215.8,286046999.1,N
1527346235.6,286046998.4,N
1527346255.5,286046998.6,N
1527346275.3,286046998.1,N
1527346295.1,286046998.9,N
1527346315.9,286046996.9,N
1527346335.7,286046997.1,N
1527346355.6,286046996.7,N
1527346375.4,286046999.5,N
1527346395.2,286046997.4,N
1527346415.1,286046997.6,N
1527346416.0,286046997.6,N
1527346435.8,286046997.6,N
1527346455.6,286046995.3,Y
1527346475.5,286046996.5,P
1527346495.3,286046999.1,N
1527346515.2,286046996.5,P
1527346535.9,286046997.0,N
1527346555.7,286046996.7,Y
1527346575.6,286046998.2,P
1527346595.4,286046998.6,P
1527346615.3,286046998.4,P
1527346635.1,286046998.6,Y
1527346636.0,286046998.6,P
1527346655.8,286047002.8,P
1527346675.7,286047002.3,N
1527346695.5,286047001.6,N
1527346715.4,286047004.2,N
1527346735.2,286047004.2,N
1527346755.0,286047003.7,N
1527346755.9,286047003.7,N
1527346775.8,286047003.9,N
1527346795.6,286047005.2,N
